COSMOS 1410

导读 | 星芒AI

COSMOS 1410 是一颗由苏联于1982年发射的军用通信卫星,用于支持军事通信和情报传输。该卫星运行在近地轨道,具体任务细节未公开,但其存在表明苏联在冷战期间对空间通信系统的高度重视。COSMOS 系列卫星多为苏联/俄罗斯的试验性或军事用途卫星,COSMOS 1410 也不例外。尽管其任务内容保密,但其发射体现了当时苏联在航天和军事技术领域的活跃发展。

基本信息
目录编号:
13589
目录名称:
COSMOS 1410
国际标识:
1982-096A
轨道中心:
EARTH
卫星名称:
COSMOS 1410
卫星全名:
--
卫星状态:
在轨 (已飞行15747 天)
发射日期:
1982-09-24 UTC
国别 :
俄罗斯(独联体) (CIS)
星等 :
--
轨道信息
数据来源 国际轨道数据 AOE轨道数据
星历时间 2025-11-04T11:28:56+0800
5小时前
查看轨道信息
2025-11-03T15:00:00+0800
1天前
查看轨道信息
半长轴 7874.805km 7874.804km
偏心率 0.000736 0.0007465
轨道倾角 82.608° 82.609°
近地点辐角 80.359° 82.885°
升交点赤经 249.876° 250.400°
平近点角 290.710° 73.139°
近地点 1490.874km 1490.79km
远地点 1502.466km 1502.548km
周期 115.910分钟 115.910分钟
每日圈数 12.423474 12.423478
详细信息
使用方式:
暂无
2D轨道图
3D轨道图
轨道高度分析图
轨道倾角分析图
轨道综合分析图
查看轨道综合分析图